Kerry Airport, Ireland

9:49 PM GMT on November 17, 2017 (GMT +0000)
Farranfore

Weather History for EIKY - January, 2014

Change the Weather History Date:

Thursday, January 30, 2014

  Actual Average (EINN) Record (EINN)
Temperature  
Mean Temperature 38 °F -  
Max Temperature 44 °F 47 °F 54 °F (2017)
Min Temperature 33 °F 38 °F 24 °F (2006)
Degree Days  
Heating Degree Days 26    
Moisture  
Dew Point 40 °F    
Average Humidity 92    
Maximum Humidity 100    
Minimum Humidity 87    
Precipitation  
Precipitation 0.00 in - - ()
Sea Level Pressure  
Sea Level Pressure 29.53 in    
Wind  
Wind Speed 3 mph ()    
Max Wind Speed 7 mph    
Max Gust Speed -    
Visibility 6.2 miles    
Events Rain    
Averages and records for this station are not official NWS values.
T = Trace of Precipitation, MM = Missing Value Source: Averaged Metar Reports

Daily Weather History Graph

Daily Weather History Graph

Search for Another Location

Airport or City:

Trip Planner

Search our weather history database for the weather conditions in past years. The results will help you decide how hot, cold, wet, or windy it might be!

Date:

Astronomy

Jan. 30, 2014 Rise Set
Actual Time 8:21 AM GMT 5:21 PM GMT
Civil Twilight 7:44 AM GMT 5:58 PM GMT
Nautical Twilight 7:03 AM GMT 6:39 PM GMT
Astronomical Twilight 6:24 AM GMT 7:19 PM GMT
Moon 7:33 AM GMT (1/30) 5:23 PM GMT (1/30)
Length of Visible Light 10h 13m
Length of Day
8h 59m
Waning Crescent, 0% of the Moon is Illuminated
Jan 30
Waning Crescent
Jan 30
New
Feb 6
First Quarter
Feb 14
Full
Feb 22
Last Quarter

Hourly Weather History & Observations

Time (GMT) Temp. Windchill Dew Point Humidity Pressure Visibility Wind Dir Wind Speed Gust Speed Precip Events Conditions
6:50 AM 33.8 °F - 33.8 °F 100% 29.56 in 6.2 mi Calm Calm - N/A   Partly Cloudy
7:20 AM 33.8 °F - 33.8 °F 100% 29.56 in 6.2 mi Calm Calm - N/A   Partly Cloudy
7:50 AM 33.8 °F - 33.8 °F 100% 29.53 in 6.2 mi Calm Calm - N/A   Partly Cloudy
8:20 AM 33.8 °F - 33.8 °F 100% 29.53 in 6.2 mi Variable 1.2 mph - N/A   Partly Cloudy
9:20 AM 41.0 °F 36.4 °F 41.0 °F 100% 29.50 in 6.2 mi South 6.9 mph - N/A   Mostly Cloudy
9:50 AM 42.8 °F 41.1 °F 39.2 °F 87% 29.50 in 6.2 mi South 3.5 mph - N/A Rain Light Rain
10:50 AM 41.0 °F 39.0 °F 39.2 °F 93% 29.50 in 6.2 mi Variable 3.5 mph - N/A Rain Light Rain
11:20 AM 41.0 °F 37.1 °F 39.2 °F 93% 29.53 in 6.2 mi East 5.8 mph - N/A Rain Light Rain
11:50 AM 41.0 °F 38.0 °F 39.2 °F 93% 29.50 in 6.2 mi ESE 4.6 mph - N/A Rain Light Rain
12:20 PM 42.8 °F 40.1 °F 39.2 °F 87% 29.50 in 6.2 mi ESE 4.6 mph - N/A Rain Light Rain
1:20 PM 42.8 °F 41.1 °F 41.0 °F 93% 29.53 in 6.2 mi SSE 3.5 mph - N/A   Mostly Cloudy
1:50 PM 42.8 °F 41.1 °F 41.0 °F 93% 29.53 in 6.2 mi Variable 3.5 mph - N/A   Mostly Cloudy
2:20 PM 44.6 °F 41.4 °F 41.0 °F 87% 29.53 in 6.2 mi SSE 5.8 mph - N/A   Mostly Cloudy
2:50 PM 44.6 °F 42.2 °F 41.0 °F 87% 29.53 in 6.2 mi SSE 4.6 mph - N/A   Mostly Cloudy
3:20 PM 44.6 °F 42.2 °F 41.0 °F 87% 29.53 in 6.2 mi SW 4.6 mph - N/A   Mostly Cloudy
3:50 PM 44.6 °F 41.4 °F 41.0 °F 87% 29.53 in 6.2 mi SSW 5.8 mph - N/A   Mostly Cloudy
4:20 PM 44.6 °F 42.2 °F 41.0 °F 87% 29.53 in 6.2 mi SSW 4.6 mph - N/A   Mostly Cloudy
4:50 PM 44.6 °F 42.2 °F 41.0 °F 87% 29.53 in 6.2 mi South 4.6 mph - N/A   Mostly Cloudy
5:20 PM 44.6 °F - 41.0 °F 87% 29.56 in 6.2 mi Variable 2.3 mph - N/A   Mostly Cloudy
5:50 PM 44.6 °F - 41.0 °F 87% 29.56 in 6.2 mi Variable 2.3 mph - N/A   Light Drizzle
6:20 PM 44.6 °F 41.4 °F 42.8 °F 93% 29.56 in 6.2 mi SW 5.8 mph - N/A   Light Drizzle
6:50 PM 42.8 °F 39.3 °F 42.8 °F 100% 29.56 in 6.2 mi SSW 5.8 mph - N/A   Light Drizzle
7:20 PM 42.8 °F 40.1 °F 41.0 °F 93% 29.56 in 6.2 mi SSW 4.6 mph - N/A   Light Drizzle